Location: B�hl
(48.6968°N, 8.1352°E)
Time: 03:49:09
(UTC+00:00)

DMSP B5D2-2 - Pass Details

Date: 08 March 2021
Orbit: 789 x 806 km, 98.3° (Epoch: 17 April)

Event Time Altitude Azimuth Distance (km) Brightness Sun altitude
Rises 19:09:49 0° 13° (NNE) 3,309 7.3 -18.4°
Reaches altitude 10° 19:12:09 10° 13° (NNE) 2,372 6.6 -18.8°
Maximum altitude 19:17:24 85° 286° (WNW) 802 4.1 -19.6°
Drops below altitude 10° 19:22:36 10° 198° (SSW) 2,348 6.5 -20.5°
Sets 19:24:54 0° 198° (SSW) 3,272 7.3 -20.8°
